Nashville, TN

4:00 PM CDT on August 28, 2016 (GMT -0500)
Nashville International

Weather History for KBNA - October, 2013

Change the Weather History Date:

Sunday, October 6, 2013

  Actual Average Record
Temperature  
Mean Temperature 65 °F 64 °F  
Max Temperature 75 °F 75 °F 93 °F (1941)
Min Temperature 55 °F 52 °F 31 °F (1980)
Degree Days  
Heating Degree Days 0    
Month to date heating degree days 0  
Since 1 July heating degree days 2  
Cooling Degree Days 0    
Month to date cooling degree days 55  
Year to date cooling degree days 1699  
Growing Degree Days 15 (Base 50)    
Moisture  
Dew Point 62 °F    
Average Humidity 81    
Maximum Humidity 93    
Minimum Humidity 68    
Precipitation  
Precipitation 0.92 in 0.11 in 2.41 in (1910)
Month to date precipitation 1.08 0.62  
Year to date precipitation 43.11 36.28  
Snow  
Snow 0.00 in 0.00 in 0.00 in (2002)
Month to date snowfall 0.0 0.0  
Since 1 July snowfall 0.0 0.0  
Since 1 September snowfall 0.0 0.0  
Snow Depth 0.00 in    
Sea Level Pressure  
Sea Level Pressure 29.88 in    
Wind  
Wind Speed 7 mph (SW)    
Max Wind Speed 18 mph    
Max Gust Speed 26 mph    
Visibility 7 miles    
Events Rain , Thunderstorm    
T = Trace of Precipitation, MM = Missing Value Source: NWS Daily Summary

Daily Weather History Graph

Daily Weather History Graph

Search for Another Location

Airport or City:

Trip Planner

Search our weather history database for the weather conditions in past years. The results will help you decide how hot, cold, wet, or windy it might be!

Date:

Astronomy

Oct. 06, 2013 Rise Set
Actual Time 6:46 AM CDT 6:22 PM CDT
Civil Twilight 6:20 AM CDT 6:48 PM CDT
Nautical Twilight 5:50 AM CDT 7:18 PM CDT
Astronomical Twilight 5:20 AM CDT 7:47 PM CDT
Moon 8:25 AM CDT (10/6) 7:26 PM CDT (10/6)
Length of Visible Light 12h 27m
Length of Day
11h 36m
Waxing Crescent, 3% of the Moon is Illuminated
Oct 6
Waxing Crescent
Oct 11
First Quarter
Oct 18
Full
Oct 26
Last Quarter
Nov 3
New

Hourly Weather History & Observations

Time (CDT) Temp. Dew Point Humidity Pressure Visibility Wind Dir Wind Speed Gust Speed Precip Events Conditions
12:53 AM 73.9 °F 64.0 °F 71% 29.90 in 10.0 mi South 11.5 mph - N/A   Partly Cloudy
1:53 AM 73.0 °F 64.0 °F 73% 29.88 in 10.0 mi South 11.5 mph - N/A   Partly Cloudy
2:53 AM 73.9 °F 63.0 °F 68% 29.88 in 10.0 mi South 11.5 mph - N/A   Mostly Cloudy
3:53 AM 73.0 °F 63.0 °F 71% 29.86 in 10.0 mi South 12.7 mph 20.7 mph N/A   Mostly Cloudy
4:53 AM 73.0 °F 63.0 °F 71% 29.86 in 10.0 mi South 13.8 mph - N/A   Mostly Cloudy
5:53 AM 71.1 °F 66.0 °F 84% 29.87 in 3.0 mi SSW 12.7 mph 26.5 mph 0.07 in Rain , Thunderstorm Light Thunderstorms and Rain
6:19 AM 69.8 °F 66.2 °F 88% 29.89 in 9.0 mi West 4.6 mph - 0.04 in Rain , Thunderstorm Light Thunderstorms and Rain
6:26 AM 69.8 °F 68.0 °F 94% 29.90 in 8.0 mi SW 5.8 mph - 0.05 in Rain Light Rain
6:41 AM 69.8 °F 68.0 °F 94% 29.91 in 1.8 mi SW 8.1 mph - N/A Rain Rain
6:49 AM 69.8 °F 68.0 °F 94% 29.90 in 1.2 mi SW 6.9 mph - 0.30 in Rain Heavy Rain
6:53 AM 70.0 °F 68.0 °F 93% 29.88 in 1.8 mi SW 3.5 mph - 0.33 in Rain Rain
7:01 AM 69.8 °F 68.0 °F 94% 29.90 in 1.5 mi WSW 4.6 mph - 0.09 in Rain Heavy Rain
7:08 AM 69.8 °F 68.0 °F 94% 29.90 in 3.0 mi West 4.6 mph - 0.11 in Rain Light Rain
7:17 AM 69.8 °F 68.0 °F 94% 29.90 in 9.0 mi South 4.6 mph - 0.11 in   Overcast
7:43 AM 69.8 °F 68.0 °F 94% 29.90 in 3.0 mi South 10.4 mph - 0.12 in Rain Light Rain
7:49 AM 69.8 °F 66.2 °F 88% 29.90 in 2.5 mi SSW 5.8 mph - 0.16 in Rain Light Rain
7:53 AM 70.0 °F 68.0 °F 93% 29.89 in 5.0 mi South 6.9 mph - 0.17 in Rain Light Rain
8:16 AM 69.8 °F 68.0 °F 94% 29.90 in 9.0 mi South 6.9 mph - 0.00 in Rain Light Rain
8:34 AM 69.8 °F 66.2 °F 88% 29.90 in 10.0 mi SSE 8.1 mph - 0.02 in Rain Light Rain
8:53 AM 70.0 °F 68.0 °F 93% 29.88 in 10.0 mi South 5.8 mph - 0.02 in   Mostly Cloudy
9:06 AM 69.8 °F 68.0 °F 94% 29.90 in 10.0 mi South 5.8 mph - N/A   Overcast
9:53 AM 71.1 °F 68.0 °F 90% 29.87 in 10.0 mi Calm Calm - N/A   Overcast
10:30 AM 71.6 °F 68.0 °F 88% 29.89 in 10.0 mi SW 3.5 mph - 0.00 in Rain Light Rain
10:53 AM 73.9 °F 69.1 °F 85% 29.86 in 10.0 mi WSW 10.4 mph 17.3 mph 0.00 in   Mostly Cloudy
11:53 AM 73.9 °F 66.9 °F 79% 29.85 in 10.0 mi WNW 10.4 mph - N/A   Overcast
12:29 PM 68.0 °F 64.4 °F 88% 29.87 in 10.0 mi NW 10.4 mph - 0.00 in Rain Light Rain
12:43 PM 64.4 °F 62.6 °F 94% 29.87 in 8.0 mi NW 12.7 mph 18.4 mph 0.01 in Rain Light Rain
12:53 PM 64.0 °F 62.1 °F 93% 29.85 in 9.0 mi NW 10.4 mph - 0.01 in Rain Light Rain
1:53 PM 63.0 °F 61.0 °F 93% 29.84 in 9.0 mi WNW 6.9 mph - 0.00 in Rain Light Rain
2:53 PM 64.0 °F 61.0 °F 90% 29.83 in 7.0 mi WNW 5.8 mph - 0.03 in Rain Light Rain
3:53 PM 59.0 °F 53.1 °F 81% 29.84 in 10.0 mi WNW 11.5 mph 20.7 mph 0.00 in Rain Light Rain
4:04 PM 57.2 °F 53.6 °F 88% 29.87 in 5.0 mi WNW 8.1 mph - 0.00 in Rain Rain
4:53 PM 59.0 °F 54.0 °F 83% 29.85 in 10.0 mi Calm Calm - 0.03 in   Overcast
5:13 PM 59.0 °F 55.4 °F 88% 29.87 in 9.0 mi WNW 3.5 mph - 0.00 in Rain Light Rain
5:37 PM 57.2 °F 53.6 °F 88% 29.88 in 1.5 mi Variable 5.8 mph - 0.03 in Rain Heavy Rain
5:44 PM 57.2 °F 53.6 °F 88% 29.88 in 1.0 mi South 3.5 mph - 0.12 in Rain Heavy Rain
5:48 PM 57.2 °F 53.6 °F 88% 29.88 in 1.5 mi South 4.6 mph - 0.16 in Rain Light Rain
5:53 PM 57.0 °F 54.0 °F 89% 29.87 in 5.0 mi SSE 4.6 mph - 0.17 in Rain Light Rain
6:00 PM 57.2 °F 53.6 °F 88% 29.89 in 10.0 mi South 4.6 mph - 0.00 in Rain Light Rain
6:08 PM 55.4 °F 53.6 °F 94% 29.88 in 1.8 mi Calm Calm - 0.02 in Rain Heavy Rain
6:18 PM 55.4 °F 53.6 °F 94% 29.88 in 3.0 mi South 3.5 mph - 0.08 in Rain Light Rain
6:53 PM 57.0 °F 54.0 °F 89% 29.88 in 10.0 mi Calm Calm - 0.09 in   Overcast
7:53 PM 57.0 °F 55.0 °F 93% 29.91 in 10.0 mi South 5.8 mph - N/A   Overcast
8:53 PM 57.9 °F 55.9 °F 93% 29.92 in 10.0 mi South 4.6 mph - N/A   Overcast
9:53 PM 57.9 °F 55.9 °F 93% 29.93 in 10.0 mi Calm Calm - N/A   Overcast
10:53 PM 57.0 °F 55.0 °F 93% 29.95 in 10.0 mi Calm Calm - N/A   Scattered Clouds
11:53 PM 55.9 °F 53.1 °F 90% 29.95 in 10.0 mi NW 3.5 mph - N/A   Clear